Menominee, MI

3:26 AM CDT on August 24, 2016 (GMT -0500)
Menominee-Marinette Twin County

Weather History for KMNM - December, 2010

Change the Weather History Date:

Sunday, December 12, 2010

  Actual Average Record
Temperature  
Mean Temperature 19 °F -  
Max Temperature 26 °F 32 °F 54 °F (1949)
Min Temperature 12 °F 15 °F -4 °F (1962)
Degree Days  
Heating Degree Days 46    
Moisture  
Dew Point 8 °F    
Average Humidity 61    
Maximum Humidity 80    
Minimum Humidity 49    
Precipitation  
Precipitation 0.00 in - - ()
Sea Level Pressure  
Sea Level Pressure 29.87 in    
Wind  
Wind Speed 22 mph (NNE)    
Max Wind Speed 32 mph    
Max Gust Speed 43 mph    
Visibility 4 miles    
Events      
Averages and records for this station are not official NWS values.
T = Trace of Precipitation, MM = Missing Value Source: NWS Daily Summary

Daily Weather History Graph

Daily Weather History Graph

Search for Another Location

Airport or City:

Trip Planner

Search our weather history database for the weather conditions in past years. The results will help you decide how hot, cold, wet, or windy it might be!

Date:

Astronomy

Dec. 12, 2010 Rise Set
Actual Time 7:20 AM CST 4:08 PM CST
Civil Twilight 6:46 AM CST 4:42 PM CST
Nautical Twilight 6:09 AM CST 5:19 PM CST
Astronomical Twilight 5:33 AM CST 5:55 PM CST
Moon 11:20 AM CST (12/12) 11:26 PM CST (12/12)
Length of Visible Light 9h 56m
Length of Day
8h 48m
Waxing Crescent, 42% of the Moon is Illuminated
Dec 12
Waxing Crescent
Dec 13
First Quarter
Dec 21
Full
Dec 27
Last Quarter
Jan 4
New

Hourly Weather History & Observations

Time (CST) Temp. Windchill Dew Point Humidity Pressure Visibility Wind Dir Wind Speed Gust Speed Precip Events Conditions
12:15 AM 26.6 °F 11.7 °F 17.6 °F 69% 29.78 in 0.8 mi NE 24.2 mph 34.5 mph N/A   Overcast
12:35 AM 24.8 °F 9.3 °F 17.6 °F 74% 29.78 in 0.5 mi NNE 24.2 mph 34.5 mph N/A   Overcast
1:35 AM 24.8 °F 9.6 °F 19.4 °F 80% 29.77 in 0.8 mi NNE 23.0 mph 36.8 mph N/A   Overcast
2:15 AM 24.8 °F 8.4 °F 17.6 °F 74% 29.78 in 1.0 mi NNE 27.6 mph 35.7 mph N/A   Overcast
2:35 AM 24.8 °F 10.7 °F 17.6 °F 74% 29.79 in 1.0 mi NNE 19.6 mph 33.4 mph N/A   Overcast
2:55 AM 24.8 °F 9.3 °F 15.8 °F 69% 29.78 in 0.8 mi NNE 24.2 mph 28.8 mph N/A   Overcast
3:15 AM 24.8 °F 10.3 °F 15.8 °F 69% 29.78 in 1.0 mi NNE 20.7 mph 33.4 mph N/A   Overcast
3:35 AM 23.0 °F 7.6 °F 15.8 °F 74% 29.79 in 1.0 mi NNE 21.9 mph 27.6 mph N/A   Overcast
3:55 AM 23.0 °F 8.3 °F 15.8 °F 74% 29.79 in 1.2 mi NNE 19.6 mph 32.2 mph N/A   Overcast
4:15 AM 23.0 °F 7.6 °F 15.8 °F 74% 29.79 in 1.5 mi NNE 21.9 mph 31.1 mph N/A   Overcast
4:55 AM 23.0 °F 7.6 °F 14.0 °F 68% 29.79 in 1.8 mi NNE 21.9 mph 34.5 mph N/A   Overcast
5:15 AM 23.0 °F 8.0 °F 14.0 °F 68% 29.79 in 2.0 mi NNE 20.7 mph 36.8 mph N/A   Overcast
5:35 AM 21.2 °F 4.5 °F 15.8 °F 80% 29.80 in 1.8 mi NNE 24.2 mph 36.8 mph N/A   Overcast
6:15 AM 21.2 °F 5.6 °F 12.2 °F 68% 29.81 in 2.5 mi North 20.7 mph 29.9 mph N/A   Overcast
6:35 AM 21.2 °F 6.4 °F 12.2 °F 68% 29.82 in 2.0 mi NNE 18.4 mph 33.4 mph N/A   Overcast
6:55 AM 21.2 °F 4.5 °F 12.2 °F 68% 29.83 in 2.5 mi NNE 24.2 mph 34.5 mph N/A   Overcast
7:15 AM 21.2 °F 5.6 °F 12.2 °F 68% 29.83 in 2.0 mi North 20.7 mph 29.9 mph N/A   Overcast
7:35 AM 21.2 °F 4.9 °F 10.4 °F 63% 29.84 in 1.5 mi NNE 23.0 mph 28.8 mph N/A   Overcast
7:55 AM 21.2 °F 6.8 °F 10.4 °F 63% 29.84 in 2.5 mi North 17.3 mph 32.2 mph N/A   Overcast
8:15 AM 21.2 °F 5.6 °F 10.4 °F 63% 29.84 in 2.0 mi North 20.7 mph 33.4 mph N/A   Overcast
8:35 AM 21.2 °F 5.2 °F 10.4 °F 63% 29.85 in 1.8 mi North 21.9 mph 35.7 mph N/A   Overcast
8:55 AM 21.2 °F 6.0 °F 10.4 °F 63% 29.85 in 2.0 mi North 19.6 mph 35.7 mph N/A   Overcast
9:15 AM 21.2 °F 5.6 °F 8.6 °F 58% 29.86 in 4.0 mi North 20.7 mph 32.2 mph N/A   Overcast
9:35 AM 21.2 °F 5.2 °F 10.4 °F 63% 29.86 in 1.8 mi NNE 21.9 mph 36.8 mph N/A   Overcast
9:55 AM 19.4 °F 1.8 °F 8.6 °F 63% 29.86 in 1.2 mi North 25.3 mph 36.8 mph N/A   Overcast
10:15 AM 19.4 °F 2.1 °F 10.4 °F 68% 29.86 in 1.5 mi NNE 24.2 mph 34.5 mph N/A   Overcast
10:35 AM 19.4 °F 2.8 °F 8.6 °F 63% 29.86 in 1.2 mi NNE 21.9 mph 29.9 mph N/A   Overcast
10:55 AM 19.4 °F 2.8 °F 8.6 °F 63% 29.86 in 1.5 mi NNE 21.9 mph 36.8 mph N/A   Overcast
11:15 AM 21.2 °F 2.4 °F 6.8 °F 54% 29.86 in 1.8 mi NNE 32.2 mph 42.6 mph N/A   Overcast
11:35 AM 19.4 °F 2.1 °F 8.6 °F 63% 29.86 in 2.5 mi NNE 24.2 mph 38.0 mph N/A   Overcast
11:55 AM 19.4 °F 2.5 °F 6.8 °F 58% 29.86 in 1.5 mi NNE 23.0 mph 40.3 mph N/A   Overcast
12:15 PM 19.4 °F 2.5 °F 6.8 °F 58% 29.87 in 2.5 mi NNE 23.0 mph 36.8 mph N/A   Overcast
12:35 PM 19.4 °F 3.2 °F 6.8 °F 58% 29.86 in 4.0 mi North 20.7 mph 33.4 mph N/A   Mostly Cloudy
12:55 PM 19.4 °F 2.8 °F 6.8 °F 58% 29.87 in 3.0 mi NNE 21.9 mph 31.1 mph N/A   Overcast
1:15 PM 19.4 °F 3.6 °F 5.0 °F 54% 29.87 in 2.5 mi NNE 19.6 mph 38.0 mph N/A   Overcast
1:35 PM 19.4 °F 2.5 °F 5.0 °F 54% 29.87 in 3.0 mi NNE 23.0 mph 42.6 mph N/A   Overcast
1:55 PM 19.4 °F 2.8 °F 5.0 °F 54% 29.87 in 1.8 mi NNE 21.9 mph 41.4 mph N/A   Overcast
2:15 PM 19.4 °F 3.2 °F 5.0 °F 54% 29.88 in 3.0 mi NNE 20.7 mph 41.4 mph N/A   Overcast
2:35 PM 19.4 °F 2.1 °F 3.2 °F 49% 29.89 in 3.0 mi North 24.2 mph 38.0 mph N/A   Overcast
2:55 PM 17.6 °F 0.5 °F 3.2 °F 53% 29.90 in 5.0 mi North 21.9 mph 33.4 mph N/A   Mostly Cloudy
3:15 PM 17.6 °F -0.6 °F 1.4 °F 49% 29.91 in 5.0 mi North 25.3 mph 38.0 mph N/A   Overcast
3:35 PM 17.6 °F 0.1 °F 1.4 °F 49% 29.92 in 7.0 mi North 23.0 mph 36.8 mph N/A   Overcast
3:55 PM 17.6 °F -1.3 °F 1.4 °F 49% 29.93 in 4.0 mi North 27.6 mph 39.1 mph N/A   Overcast
4:15 PM 15.8 °F -2.3 °F 1.4 °F 53% 29.94 in 9.0 mi North 23.0 mph 29.9 mph N/A   Mostly Cloudy
4:35 PM 15.8 °F 0.3 °F 1.4 °F 53% 29.95 in 10.0 mi North 16.1 mph 28.8 mph N/A   Scattered Clouds
4:55 PM 15.8 °F -1.5 °F 1.4 °F 53% 29.95 in 9.0 mi North 20.7 mph 31.1 mph N/A   Scattered Clouds
5:15 PM 15.8 °F -1.5 °F 1.4 °F 53% 29.96 in 9.0 mi North 20.7 mph 31.1 mph N/A   Partly Cloudy
5:35 PM 15.8 °F -1.5 °F -0.4 °F 49% 29.96 in 10.0 mi North 20.7 mph 32.2 mph N/A   Clear
5:55 PM 15.8 °F -1.1 °F 1.4 °F 53% 29.96 in 10.0 mi North 19.6 mph 28.8 mph N/A   Partly Cloudy
6:15 PM 15.8 °F -2.3 °F -0.4 °F 49% 29.96 in 10.0 mi North 23.0 mph 31.1 mph N/A   Clear
6:35 PM 14.0 °F -2.5 °F 1.4 °F 57% 29.97 in 10.0 mi North 17.3 mph 31.1 mph N/A   Clear
6:55 PM 14.0 °F -2.0 °F -0.4 °F 53% 29.96 in 10.0 mi North 16.1 mph 29.9 mph N/A   Clear
7:15 PM 14.0 °F -3.0 °F -0.4 °F 53% 29.97 in 10.0 mi North 18.4 mph 27.6 mph N/A   Clear
7:35 PM 12.2 °F -5.8 °F -0.4 °F 57% 29.96 in 10.0 mi North 19.6 mph 26.5 mph N/A   Clear
7:55 PM 12.2 °F -5.8 °F -0.4 °F 57% 29.96 in 10.0 mi North 19.6 mph 28.8 mph N/A   Clear
8:15 PM 12.2 °F -4.3 °F -0.4 °F 57% 29.97 in 10.0 mi North 16.1 mph 24.2 mph N/A   Clear
8:35 PM 12.2 °F -4.3 °F -0.4 °F 57% 29.97 in 10.0 mi North 16.1 mph 25.3 mph N/A   Clear
8:55 PM 12.2 °F -3.7 °F -2.2 °F 53% 29.97 in 10.0 mi North 15.0 mph 24.2 mph N/A   Clear
9:15 PM 12.2 °F -4.3 °F -2.2 °F 53% 29.97 in 10.0 mi North 16.1 mph 24.2 mph N/A   Clear
9:35 PM 12.2 °F -3.7 °F -0.4 °F 57% 29.98 in 10.0 mi North 15.0 mph 25.3 mph N/A   Partly Cloudy